Total_Precipitation_Accumulation
0.31 0.67 0.93 0.83 0.76 0.77 0.73 0.72 0.73 0.62 0.56 0.58 0.51 0.45 0.48 0.50 0.51 0.45 0.45 0.45 0.38 0.35 0.38 0.36 0.31 0.33 0.36 0.47 0.58 0.75 1.10 1.52 1.70 1.59 1.54 1.59 1.69 1.67 1.57 1.55 1.51 1.56 1.55 1.55
0.36 0.46 0.38 0.42 0.48 0.59 0.68 0.74 0.75 0.64 0.48 0.46 0.45 0.39 0.38 0.41 0.44 0.40 0.37 0.39 0.36 0.33 0.29 0.27 0.23 0.26 0.31 0.48 0.63 0.75 1.04 1.49 1.68 1.78 1.89 2.10 2.27 2.15 2.02 2.00 1.95 2.02 2.03 2.19
0.32 0.29 0.23 0.34 0.51 0.62 0.67 0.70 0.70 0.61 0.47 0.41 0.39 0.40 0.35 0.38 0.35 0.33 0.33 0.35 0.31 0.25 0.23 0.24 0.22 0.25 0.30 0.42 0.54 0.68 0.88 1.17 1.52 1.78 2.04 2.32 2.53 2.50 2.38 2.22 2.19 2.25 2.31 2.47
0.32 0.27 0.27 0.34 0.42 0.52 0.69 0.48 0.44 0.43 0.54 0.55 0.41 0.59 0.40 0.40 0.38 0.34 0.33 0.33 0.31 0.27 0.25 0.28 0.25 0.25 0.29 0.37 0.46 0.62 0.81 1.04 1.29 1.52 1.93 2.36 2.65 2.74 2.64 2.54 2.49 2.45 2.47 2.52
0.29 0.25 0.27 0.32 0.33 0.39 0.51 0.40 0.39 0.41 0.48 0.45 0.32 0.43 0.41 0.33 0.37 0.33 0.31 0.30 0.29 0.27 0.28 0.30 0.30 0.33 0.36 0.37 0.43 0.56 0.72 0.94 1.20 1.43 1.78 2.17 2.44 2.65 2.80 2.62 2.49 2.51 2.54 2.57
0.25 0.19 0.21 0.27 0.30 0.32 0.40 0.42 0.40 0.40 0.45 0.50 0.25 0.37 0.48 0.33 0.29 0.30 0.27 0.26 0.27 0.29 0.33 0.38 0.47 0.51 0.50 0.44 0.49 0.59 0.69 0.84 1.02 1.17 1.38 1.61 1.93 2.19 2.53 2.52 2.45 2.57 2.55 2.48
0.28 0.25 0.21 0.22 0.29 0.32 0.38 0.55 0.69 0.68 0.65 0.45 0.20 0.34 0.49 0.35 0.27 0.28 0.28 0.28 0.28 0.31 0.36 0.44 0.58 0.63 0.64 0.56 0.52 0.55 0.69 0.78 0.85 0.96 1.06 1.20 1.45 1.61 1.98 2.28 2.26 2.19 2.24 2.30
0.30 0.31 0.20 0.20 0.24 0.28 0.31 0.49 0.75 0.83 0.72 0.48 0.34 0.51 0.55 0.39 0.32 0.29 0.27 0.30 0.35 0.38 0.43 0.60 0.76 0.78 0.77 0.69 0.60 0.59 0.71 0.78 0.81 0.87 0.90 0.99 1.12 1.21 1.37 1.58 1.70 1.73 1.80 2.02
0.31 0.27 0.18 0.18 0.18 0.19 0.27 0.33 0.38 0.54 0.51 0.54 0.53 0.62 0.55 0.34 0.32 0.34 0.36 0.40 0.50 0.59 0.63 0.76 0.91 0.93 0.84 0.77 0.69 0.67 0.73 0.85 0.87 0.88 0.91 0.99 1.03 1.03 1.13 1.16 1.30 1.49 1.53 1.59
0.32 0.29 0.20 0.20 0.20 0.18 0.19 0.25 0.40 0.59 0.73 0.74 0.61 0.63 0.59 0.45 0.44 0.43 0.48 0.54 0.66 0.76 0.83 0.91 1.06 1.07 0.92 0.80 0.70 0.68 0.72 0.85 1.04 1.15 1.11 1.06 1.12 1.19 1.40 1.43 1.29 1.27 1.43 1.49
0.44 0.41 0.24 0.22 0.21 0.21 0.23 0.33 0.47 0.61 0.63 0.86 0.95 0.85 0.67 0.64 0.65 0.66 0.67 0.73 0.82 0.93 0.94 0.92 1.01 1.07 0.96 0.77 0.69 0.64 0.66 0.77 0.92 0.96 1.01 1.00 1.05 1.15 1.42 1.65 1.60 1.42 1.41 1.43
0.42 0.54 0.37 0.25 0.25 0.26 0.31 0.43 0.63 0.92 0.88 0.81 0.98 0.96 0.72 0.65 0.69 0.69 0.68 0.67 0.72 0.85 0.86 0.89 0.93 0.88 0.79 0.64 0.56 0.53 0.53 0.66 0.78 0.78 0.83 0.91 0.92 1.02 1.14 1.26 1.28 1.23 1.14 1.12
0.51 0.69 0.67 0.55 0.54 0.43 0.49 0.51 0.59 0.76 0.88 0.90 1.02 1.00 0.69 0.61 0.55 0.56 0.59 0.62 0.64 0.65 0.65 0.66 0.68 0.64 0.62 0.60 0.58 0.52 0.51 0.59 0.67 0.71 0.77 0.84 0.85 0.87 0.90 0.92 0.86 0.90 0.92 0.98
0.51 0.58 0.67 0.73 0.73 0.69 0.65 0.55 0.50 0.69 0.95 0.88 0.86 0.82 0.67 0.58 0.53 0.55 0.57 0.58 0.61 0.55 0.48 0.48 0.50 0.52 0.56 0.56 0.56 0.53 0.50 0.57 0.66 0.81 0.89 0.92 0.93 0.92 0.93 0.91 0.87 0.88 0.91 0.95
0.41 0.41 0.34 0.34 0.36 0.48 0.51 0.44 0.43 0.51 0.60 0.75 0.73 0.70 0.57 0.53 0.57 0.60 0.58 0.53 0.51 0.44 0.38 0.39 0.39 0.42 0.43 0.44 0.45 0.46 0.45 0.52 0.60 0.74 0.85 0.89 0.91 0.94 0.90 0.83 0.81 0.85 0.83 0.82
0.29 0.31 0.27 0.24 0.25 0.33 0.40 0.39 0.40 0.40 0.44 0.54 0.61 0.60 0.47 0.43 0.42 0.42 0.40 0.34 0.34 0.35 0.30 0.28 0.28 0.30 0.31 0.30 0.31 0.32 0.39 0.49 0.54 0.63 0.75 0.92 0.95 0.86 0.82 0.74 0.72 0.75 0.74 0.72
0.26 0.34 0.42 0.35 0.29 0.33 0.56 0.54 0.54 0.56 0.50 0.50 0.44 0.35 0.23 0.23 0.26 0.29 0.29 0.29 0.33 0.31 0.25 0.23 0.24 0.25 0.26 0.27 0.32 0.35 0.42 0.51 0.50 0.57 0.71 0.91 0.90 0.78 0.72 0.76 0.79 0.76 0.74 0.74
0.22 0.34 0.48 0.41 0.43 0.73 0.88 0.63 0.60 0.56 0.36 0.22 0.15 0.14 0.13 0.19 0.18 0.17 0.19 0.21 0.24 0.23 0.19 0.18 0.17 0.17 0.18 0.22 0.27 0.31 0.35 0.39 0.42 0.49 0.59 0.76 0.77 0.74 0.77 0.76 0.73 0.68 0.63 0.62
0.23 0.36 0.53 0.46 0.50 0.71 0.68 0.44 0.36 0.36 0.25 0.11 0.08 0.09 0.11 0.14 0.13 0.11 0.12 0.13 0.13 0.14 0.10 0.09 0.10 0.10 0.10 0.10 0.13 0.17 0.20 0.23 0.27 0.36 0.46 0.56 0.58 0.62 0.64 0.62 0.62 0.58 0.54 0.55
0.36 0.44 0.64 0.59 0.70 0.70 0.37 0.19 0.17 0.25 0.31 0.10 0.05 0.05 0.05 0.07 0.11 0.08 0.07 0.07 0.08 0.07 0.06 0.04 0.04 0.05 0.04 0.05 0.07 0.09 0.13 0.17 0.19 0.27 0.36 0.46 0.48 0.50 0.51 0.56 0.58 0.58 0.54 0.51
0.36 0.46 0.56 0.59 0.80 0.64 0.26 0.13 0.14 0.27 0.34 0.12 0.05 0.03 0.03 0.03 0.05 0.05 0.06 0.05 0.06 0.06 0.05 0.03 0.03 0.03 0.04 0.05 0.05 0.06 0.10 0.13 0.15 0.17 0.24 0.31 0.39 0.46 0.53 0.58 0.59 0.62 0.59 0.54
0.42 0.45 0.45 0.53 0.68 0.62 0.25 0.18 0.23 0.23 0.13 0.07 0.04 0.03 0.02 0.02 0.02 0.02 0.03 0.04 0.05 0.05 0.04 0.04 0.04 0.03 0.04 0.06 0.05 0.05 0.08 0.12 0.12 0.12 0.18 0.26 0.35 0.43 0.52 0.62 0.64 0.63 0.62 0.61
0.43 0.46 0.47 0.55 0.66 0.46 0.27 0.24 0.23 0.17 0.12 0.06 0.03 0.02 0.02 0.02 0.01 0.01 0.02 0.03 0.04 0.05 0.05 0.04 0.04 0.03 0.04 0.05 0.05 0.06 0.07 0.08 0.08 0.10 0.14 0.21 0.25 0.28 0.34 0.43 0.53 0.59 0.61 0.61
0.27 0.27 0.32 0.41 0.39 0.24 0.22 0.21 0.16 0.13 0.10 0.05 0.03 0.02 0.02 0.02 0.02 0.01 0.02 0.02 0.03 0.04 0.04 0.04 0.04 0.04 0.05 0.04 0.05 0.06 0.07 0.06 0.07 0.10 0.12 0.15 0.17 0.17 0.19 0.29 0.36 0.42 0.49 0.55
0.22 0.24 0.28 0.34 0.33 0.22 0.16 0.15 0.12 0.11 0.07 0.04 0.03 0.02 0.02 0.02 0.02 0.02 0.02 0.02 0.03 0.03 0.03 0.03 0.04 0.05 0.05 0.05 0.05 0.06 0.07 0.08 0.09 0.09 0.09 0.11 0.13 0.15 0.17 0.22 0.30 0.34 0.42 0.46
0.16 0.21 0.29 0.35 0.32 0.27 0.16 0.13 0.10 0.09 0.07 0.05 0.04 0.03 0.03 0.02 0.02 0.02 0.02 0.02 0.03 0.03 0.04 0.04 0.04 0.05 0.05 0.05 0.05 0.07 0.09 0.09 0.12 0.15 0.12 0.11 0.13 0.16 0.18 0.20 0.23 0.22 0.26 0.27